Temp
65 64 63 63 63 63 62 62 62 61 62 62 62 62 62 61 61 61 61 61 62 62 62 62 62 62 56 50 50 64 68 66 63 61 56 53 50 48 45 46 49 45 48 51 52 52 51
64 63 63 63 63 62 62 62 61 61 61 62 62 62 61 61 61 61 61 61 61 61 61 62 62 61 51 45 61 63 61 61 60 57 54 53 49 50 47 47 46 48 48 48 50 51 51
64 64 63 63 63 62 62 61 61 61 61 61 62 61 60 60 60 60 60 61 61 61 61 62 62 57 50 49 60 60 61 57 59 56 52 53 52 49 49 45 49 49 44 46 48 50 48
65 64 64 63 63 62 61 61 61 61 61 61 61 61 60 60 60 60 60 60 60 60 61 61 62 52 46 61 58 60 60 57 59 59 56 55 54 50 48 49 48 42 43 37 46 48 48
65 64 64 63 63 62 61 61 61 61 61 61 61 60 60 59 59 59 59 60 60 61 61 61 52 48 44 63 56 58 57 54 55 56 56 62 53 47 47 41 33 39 30 37 43 49 46
65 64 64 63 62 62 61 61 61 60 60 60 60 59 59 59 59 59 59 59 61 59 58 59 57 46 51 49 54 56 57 56 52 52 51 50 44 39 38 35 26 33 34 38 38 45 44
65 64 64 63 62 62 61 61 60 60 60 59 59 58 58 58 58 59 55 50 47 47 48 43 45 45 49 54 56 53 55 52 51 47 39 43 36 29 38 40 41 39 36 37 42 46 43
64 64 63 63 62 62 61 61 60 60 59 59 58 58 58 58 58 59 52 45 44 46 39 48 49 49 53 52 46 51 55 46 45 38 41 38 33 41 44 43 41 39 35 34 40 45 43
64 64 63 63 62 62 61 61 60 59 59 59 58 57 57 58 58 53 49 47 53 50 37 43 49 48 49 50 44 46 50 45 41 37 37 34 39 46 44 40 39 35 34 35 36 40 41
64 63 63 63 62 61 61 60 60 59 58 57 57 57 57 57 52 48 47 53 53 50 28 34 43 47 50 49 42 52 50 45 41 36 38 36 43 42 40 39 39 33 40 41 40 31 25
63 63 63 62 62 61 60 60 59 59 58 57 57 57 57 56 46 46 50 52 51 46 23 39 43 54 50 44 44 45 51 45 37 38 38 36 37 38 37 39 42 37 41 38 35 28 25
63 63 62 62 61 60 60 60 59 59 58 57 57 57 56 51 50 49 51 50 47 31 23 34 44 43 42 43 44 45 45 46 44 38 37 38 43 40 40 42 41 42 38 34 29 25 17
63 63 62 62 61 60 60 59 59 58 58 57 57 56 54 55 48 54 51 44 29 23 41 36 38 42 40 39 40 41 39 35 33 28 29 35 35 41 43 37 42 39 32 16 16 12 21
62 62 62 62 61 60 60 59 59 59 58 57 56 56 54 55 55 53 46 38 25 36 34 42 41 40 36 40 38 39 35 32 34 33 27 23 22 36 41 37 35 34 32 19 10 13 20
60 62 61 61 61 60 59 59 58 58 57 56 55 51 50 53 54 51 43 28 30 34 40 39 38 32 34 39 37 35 33 33 37 37 28 25 29 38 40 40 40 33 28 34 25 20 17
59 59 59 60 61 60 59 58 57 56 55 55 48 47 48 53 53 47 37 33 34 41 43 40 34 36 29 33 32 32 32 37 37 40 38 33 27 36 38 40 39 37 39 26 26 15 14
59 60 60 60 60 60 58 57 56 55 55 53 46 41 48 52 51 41 29 31 37 44 44 39 35 33 32 33 34 31 32 36 38 38 38 35 31 30 35 33 32 33 31 31 28 24 12
59 59 59 59 59 59 58 56 55 55 54 50 44 35 47 50 37 35 29 35 43 40 42 40 39 37 34 34 32 31 32 35 38 39 34 35 31 25 31 36 38 36 34 33 23 22 21
59 59 59 58 58 58 56 55 55 54 53 45 41 39 47 46 30 30 33 37 39 38 38 38 37 39 38 34 30 33 34 39 40 37 34 36 29 20 27 31 34 31 34 35 32 28 23
59 59 59 58 58 56 55 55 54 54 52 46 37 32 39 42 38 34 33 33 35 40 38 38 36 37 35 32 33 30 32 38 38 38 46 41 30 28 21 27 31 30 32 33 32 23 25
59 58 58 58 58 55 54 54 53 53 52 45 40 35 39 32 35 35 36 35 35 34 38 38 34 35 34 26 28 32 32 34 37 39 35 35 27 26 29 31 31 32 32 32 31 30 26
58 58 58 58 55 54 54 53 52 52 50 41 37 35 38 35 37 35 34 32 34 35 35 33 32 34 33 29 31 29 34 33 35 35 32 34 28 31 26 30 31 29 31 31 32 33 33
58 58 58 55 55 54 52 51 51 51 49 40 42 42 39 35 33 33 33 35 34 37 36 36 36 33 31 34 36 38 36 34 33 32 30 30 27 26 21 27 28 23 28 32 32 35 36
57 57 55 54 53 52 51 50 50 50 49 43 41 41 35 29 33 33 36 36 35 36 33 35 36 34 36 38 37 34 30 31 30 31 32 29 29 26 21 24 12 28 33 35 32 35 35
57 55 53 52 51 50 50 50 50 50 50 42 41 39 36 29 33 33 35 34 35 36 34 34 37 38 39 35 29 26 26 26 28 29 29 32 30 24 17 17 22 30 31 30 29 29 33
53 52 51 50 49 49 48 48 49 50 51 42 39 40 39 32 30 35 34 34 29 29 30 33 37 38 36 31 29 18 19 23 22 23 28 30 30 26 21 16 13 24 31 34 34 23 33
52 50 49 49 49 49 50 50 51 51 52 42 38 40 38 30 33 34 31 30 33 30 28 30 32 32 33 27 24 20 19 25 19 20 20 23 24 22 22 20 22 28 32 34 21 22 32
50 49 49 49 50 50 50 51 51 51 50 43 37 40 38 32 31 35 37 32 31 31 27 29 29 29 27 22 24 24 22 21 18 19 18 19 18 19 22 20 16 29 29 25 27 30 32
49 49 49 49 50 50 50 51 50 50 49 44 35 41 41 34 33 37 38 39 38 38 32 30 29 28 30 24 23 22 21 16 16 13 22 18 21 18 22 21 27 29 28 31 32 32 33
MSLP
1023.51 1023.54 1023.72 1023.62 1023.55 1023.40 1023.15 1022.90 1022.69 1022.46 1022.24 1021.94 1021.63 1021.30 1020.90 1020.37 1019.86 1019.38 1019.00 1018.62 1018.17 1017.63 1017.34 1016.91 1016.49 1016.11 1015.87 1015.61 1015.52 1014.88 1014.66 1014.49 1014.12 1014.10 1014.22 1014.37 1014.33 1014.14 1013.96 1013.71 1013.57 1013.59 1013.66 1013.28 1013.20 1013.47 1013.80
1023.55 1023.54 1023.44 1023.42 1023.36 1023.26 1023.10 1022.84 1022.64 1022.45 1022.21 1021.89 1021.62 1021.26 1020.87 1020.40 1019.86 1019.34 1018.82 1018.24 1017.88 1017.37 1017.09 1016.73 1016.33 1016.04 1016.01 1015.71 1015.16 1015.00 1014.87 1014.61 1014.55 1014.54 1014.55 1014.52 1014.61 1014.38 1014.12 1013.92 1013.92 1013.75 1013.92 1013.95 1013.65 1013.50 1013.82
1023.20 1023.27 1023.25 1023.22 1023.16 1023.04 1022.95 1022.84 1022.64 1022.42 1022.25 1021.97 1021.59 1021.30 1020.85 1020.26 1019.74 1019.31 1018.77 1018.04 1017.50 1017.06 1016.72 1016.34 1016.31 1016.18 1015.99 1015.71 1015.24 1015.04 1014.86 1014.63 1014.73 1014.79 1014.76 1014.76 1014.71 1014.60 1014.49 1014.42 1014.22 1014.14 1014.30 1014.26 1014.15 1013.78 1013.91
1022.65 1022.75 1022.97 1022.98 1022.82 1022.77 1022.76 1022.65 1022.54 1022.35 1022.09 1021.87 1021.65 1021.29 1020.88 1020.31 1019.77 1019.17 1018.50 1017.82 1017.17 1016.73 1016.46 1016.28 1016.15 1016.40 1015.99 1015.37 1015.16 1015.12 1014.89 1014.69 1014.70 1014.73 1014.66 1014.59 1014.59 1014.62 1014.60 1014.74 1014.82 1014.82 1014.69 1014.74 1014.29 1014.36 1014.22
1022.42 1022.47 1022.58 1022.61 1022.64 1022.55 1022.47 1022.41 1022.29 1022.12 1021.94 1021.83 1021.59 1021.39 1020.97 1020.40 1019.76 1019.03 1018.27 1017.47 1016.86 1016.49 1016.37 1016.23 1016.30 1016.22 1015.90 1015.25 1015.37 1015.39 1015.31 1015.20 1014.94 1014.80 1014.58 1014.60 1014.70 1015.18 1015.20 1015.56 1015.89 1015.77 1015.48 1015.02 1014.45 1014.41 1014.63
1022.07 1022.22 1022.40 1022.46 1022.43 1022.30 1022.04 1021.91 1021.97 1021.97 1021.91 1021.60 1021.55 1021.32 1021.01 1020.53 1019.85 1018.94 1017.97 1017.12 1016.78 1016.59 1016.42 1016.46 1016.46 1016.74 1016.26 1016.22 1016.02 1015.78 1015.39 1015.23 1015.28 1015.25 1015.04 1014.99 1015.55 1015.92 1016.21 1016.20 1016.36 1015.78 1015.42 1014.90 1014.65 1014.66 1014.97
1021.55 1021.61 1021.82 1022.09 1022.25 1022.20 1022.07 1021.88 1021.70 1021.65 1021.58 1021.55 1021.38 1021.34 1021.11 1020.57 1019.93 1019.02 1018.09 1017.66 1017.80 1017.58 1017.57 1017.85 1017.74 1017.40 1016.91 1016.60 1016.11 1015.97 1015.63 1015.36 1015.29 1015.65 1015.82 1015.88 1016.50 1016.29 1016.05 1015.83 1015.49 1015.46 1015.10 1014.91 1014.45 1014.59 1015.13
1020.97 1021.10 1021.12 1021.35 1021.57 1021.73 1021.80 1021.79 1021.59 1021.50 1021.42 1021.32 1021.28 1021.19 1020.95 1020.58 1020.15 1019.28 1018.80 1019.68 1020.23 1020.40 1019.27 1018.08 1017.70 1017.33 1016.94 1016.79 1016.56 1016.24 1015.87 1015.85 1015.85 1016.28 1016.40 1016.73 1016.54 1015.90 1015.72 1015.63 1015.66 1015.62 1015.67 1015.55 1015.48 1015.25 1015.36
1020.31 1020.52 1020.64 1020.72 1021.00 1021.18 1021.33 1021.47 1021.59 1021.46 1021.41 1021.37 1021.09 1020.88 1020.58 1020.42 1020.02 1019.95 1020.13 1020.56 1020.29 1020.31 1020.15 1018.24 1017.56 1017.26 1016.96 1016.94 1016.73 1016.51 1016.50 1016.50 1016.43 1016.64 1016.99 1016.98 1016.40 1015.93 1015.66 1015.70 1015.78 1015.85 1016.01 1015.96 1016.34 1016.47 1016.55
1019.51 1019.68 1019.86 1020.21 1020.46 1020.68 1020.82 1020.88 1021.21 1021.24 1021.11 1021.03 1021.28 1021.11 1020.56 1020.12 1020.15 1020.59 1020.58 1020.58 1020.36 1020.28 1020.48 1018.41 1017.42 1016.79 1016.82 1016.82 1016.78 1016.54 1016.54 1017.00 1016.82 1016.97 1017.29 1017.04 1016.38 1016.10 1015.72 1015.77 1015.94 1016.18 1016.27 1016.38 1016.89 1017.77 1018.54
1018.46 1018.83 1019.11 1019.31 1019.63 1019.97 1020.19 1020.46 1020.74 1020.95 1021.08 1021.08 1021.01 1020.96 1020.76 1020.11 1020.60 1020.73 1020.77 1020.38 1020.29 1020.69 1020.03 1018.28 1017.22 1016.73 1016.66 1017.10 1017.01 1016.77 1016.67 1016.87 1017.18 1017.24 1017.72 1017.10 1016.61 1016.37 1016.11 1016.03 1016.21 1016.87 1016.81 1017.55 1018.45 1019.38 1019.73
1017.59 1017.81 1018.16 1018.58 1018.78 1019.10 1019.47 1019.75 1019.98 1020.31 1020.52 1020.67 1020.89 1020.88 1020.88 1020.89 1020.64 1020.49 1020.61 1020.55 1020.57 1020.76 1019.34 1017.60 1017.03 1016.89 1017.00 1016.90 1016.87 1016.88 1016.89 1017.07 1017.45 1017.52 1017.74 1017.47 1016.84 1016.59 1016.26 1016.27 1016.53 1017.24 1017.97 1018.99 1020.00 1020.55 1020.95
1016.51 1016.86 1017.22 1017.56 1017.95 1018.21 1018.61 1019.08 1019.46 1019.67 1019.96 1020.17 1020.43 1020.64 1020.75 1020.75 1020.55 1020.25 1020.42 1020.94 1021.55 1020.19 1018.34 1017.73 1017.21 1016.97 1017.09 1017.07 1017.00 1017.09 1017.14 1017.29 1017.76 1018.10 1018.28 1017.79 1017.18 1016.74 1016.49 1016.61 1016.88 1017.58 1018.94 1020.70 1021.80 1022.06 1020.86
1015.32 1015.72 1016.10 1016.48 1016.89 1017.29 1017.74 1018.19 1018.63 1019.11 1019.40 1019.70 1019.95 1020.37 1020.24 1020.14 1020.15 1020.16 1020.69 1021.20 1021.35 1018.70 1018.02 1017.45 1017.18 1017.20 1017.29 1017.08 1017.17 1017.25 1017.48 1017.52 1017.79 1017.98 1018.81 1018.78 1017.70 1017.07 1016.79 1016.92 1017.26 1018.05 1019.16 1020.92 1021.83 1022.58 1021.33
1015.06 1014.73 1014.74 1015.22 1015.57 1016.03 1016.59 1017.14 1017.70 1018.30 1018.77 1019.30 1019.79 1020.03 1020.14 1019.60 1020.01 1020.29 1021.01 1021.31 1019.18 1018.34 1017.29 1017.29 1017.44 1017.41 1017.54 1017.29 1017.15 1017.40 1017.52 1017.53 1017.44 1017.80 1018.19 1018.49 1017.86 1017.17 1016.97 1016.93 1017.40 1018.23 1019.00 1019.79 1021.31 1022.33 1022.12
1014.77 1014.72 1014.53 1014.63 1014.73 1014.69 1015.24 1015.95 1016.75 1017.55 1018.38 1019.15 1019.61 1019.87 1019.56 1019.34 1019.80 1020.27 1021.06 1020.00 1018.50 1017.35 1016.97 1017.07 1017.24 1017.18 1017.46 1017.92 1017.94 1017.69 1017.57 1017.31 1017.30 1017.51 1017.50 1018.02 1018.21 1017.57 1017.27 1017.28 1017.47 1017.85 1018.76 1019.90 1021.03 1022.22 1021.74
1014.14 1014.02 1014.26 1013.92 1013.76 1013.74 1014.09 1014.87 1015.85 1016.91 1017.88 1018.69 1019.32 1019.80 1019.24 1019.25 1019.81 1020.60 1020.62 1019.53 1018.15 1017.10 1016.77 1016.93 1016.94 1017.10 1017.22 1017.88 1017.99 1017.85 1017.65 1017.68 1017.57 1017.74 1017.76 1018.08 1018.46 1018.31 1017.84 1017.55 1017.50 1018.23 1018.59 1019.68 1020.74 1021.42 1021.54
1013.28 1013.28 1013.21 1013.16 1013.17 1012.74 1013.24 1014.55 1015.62 1016.83 1017.95 1018.69 1018.90 1019.30 1019.00 1019.30 1020.25 1019.93 1019.36 1018.86 1017.85 1017.51 1017.07 1017.10 1016.91 1016.77 1017.22 1017.54 1017.97 1017.91 1017.51 1017.26 1017.55 1017.78 1018.10 1018.30 1018.78 1018.89 1018.18 1017.67 1017.40 1017.59 1018.06 1018.70 1020.02 1020.88 1020.98
1012.03 1012.12 1012.78 1012.04 1012.54 1012.22 1012.71 1013.99 1015.32 1016.47 1017.66 1018.34 1018.65 1018.85 1018.68 1018.90 1019.31 1019.50 1018.75 1018.33 1017.82 1017.64 1017.64 1017.50 1017.67 1017.11 1017.16 1017.53 1018.01 1017.83 1017.41 1017.52 1017.55 1017.98 1018.21 1018.39 1018.96 1019.37 1018.72 1018.55 1018.11 1017.96 1018.00 1018.32 1019.14 1019.81 1020.03
1011.44 1011.41 1011.34 1011.44 1011.41 1011.83 1012.19 1013.22 1014.79 1016.09 1016.94 1018.03 1019.06 1019.34 1018.80 1018.48 1018.51 1018.46 1018.47 1018.10 1017.81 1017.50 1017.82 1017.87 1017.88 1017.97 1017.84 1017.84 1017.88 1018.01 1017.98 1017.98 1017.96 1018.19 1018.39 1018.70 1019.23 1019.47 1019.23 1018.86 1018.67 1018.55 1018.40 1018.58 1019.03 1019.62 1018.91
1010.61 1010.42 1010.48 1010.47 1010.71 1011.19 1011.65 1012.83 1013.28 1016.12 1016.58 1017.75 1018.26 1018.50 1017.94 1018.15 1017.95 1018.34 1018.46 1018.03 1017.64 1017.87 1018.16 1018.31 1018.33 1018.26 1018.20 1018.47 1018.40 1018.51 1018.51 1018.48 1018.50 1018.77 1019.07 1019.32 1019.69 1019.65 1019.42 1019.10 1019.04 1018.75 1018.45 1018.46 1018.78 1018.63 1018.43
1009.71 1009.66 1009.93 1009.70 1010.18 1011.34 1011.39 1012.24 1013.53 1015.27 1016.82 1017.70 1017.39 1018.02 1018.11 1018.15 1017.99 1018.26 1018.24 1018.17 1017.90 1018.02 1018.30 1018.59 1018.68 1018.62 1018.72 1018.82 1018.88 1019.09 1019.29 1019.36 1019.16 1019.43 1019.75 1020.02 1020.05 1020.32 1020.23 1019.58 1019.33 1018.79 1018.10 1017.96 1017.89 1017.75 1017.22
1009.14 1009.01 1009.39 1009.90 1010.29 1011.02 1012.17 1012.76 1013.46 1014.71 1016.10 1017.40 1017.33 1017.27 1017.54 1017.66 1017.98 1018.24 1018.03 1018.23 1018.41 1018.39 1018.61 1018.51 1018.49 1019.11 1019.45 1019.33 1019.32 1019.42 1020.01 1020.12 1020.06 1020.34 1020.62 1020.80 1020.82 1020.99 1020.67 1020.06 1019.55 1018.64 1017.30 1016.71 1016.56 1016.46 1016.09
1008.26 1008.97 1009.29 1010.10 1010.91 1011.87 1012.65 1013.27 1013.98 1014.60 1015.90 1016.89 1017.09 1017.39 1018.11 1017.85 1017.55 1017.70 1018.16 1018.38 1018.59 1018.66 1018.79 1019.18 1019.22 1019.34 1019.74 1019.67 1019.86 1020.13 1020.35 1020.51 1020.63 1020.46 1020.80 1021.17 1021.22 1021.27 1021.24 1020.69 1019.94 1017.69 1016.92 1016.51 1016.50 1016.30 1015.94
1007.78 1008.36 1009.30 1010.54 1011.60 1012.12 1013.00 1013.63 1014.07 1014.89 1015.90 1017.05 1017.10 1017.27 1017.44 1018.17 1018.10 1018.08 1018.30 1018.68 1018.74 1018.65 1019.01 1019.49 1020.00 1019.74 1019.89 1020.19 1020.52 1020.68 1020.83 1020.94 1020.12 1020.24 1020.45 1021.05 1021.26 1021.46 1021.48 1020.96 1019.20 1017.94 1017.02 1016.94 1016.71 1017.06 1016.90
1008.00 1009.20 1010.05 1010.91 1012.02 1012.62 1013.30 1013.82 1014.48 1014.98 1015.66 1016.83 1016.90 1016.98 1017.20 1017.99 1018.47 1018.05 1018.49 1018.71 1019.34 1019.42 1019.65 1019.91 1020.34 1020.24 1020.39 1020.92 1021.20 1021.22 1021.21 1021.19 1020.82 1020.81 1020.67 1020.99 1021.17 1021.41 1021.39 1020.91 1019.70 1018.29 1017.77 1017.35 1016.94 1017.80 1017.77
1008.54 1009.63 1010.67 1011.57 1012.18 1012.92 1013.45 1013.66 1014.25 1014.88 1015.28 1016.29 1017.22 1017.04 1017.34 1018.57 1018.45 1018.37 1018.49 1018.93 1019.19 1020.02 1019.78 1020.45 1020.84 1020.94 1020.85 1021.56 1022.02 1021.72 1021.67 1021.60 1021.36 1021.29 1021.56 1021.45 1021.40 1020.80 1020.92 1020.54 1019.43 1018.75 1018.21 1017.77 1018.35 1019.95 1018.85
1008.91 1010.18 1011.03 1011.88 1012.60 1013.05 1013.53 1013.89 1014.33 1014.81 1015.31 1015.74 1017.16 1017.34 1017.42 1018.58 1019.05 1018.47 1018.42 1018.88 1019.36 1019.63 1020.28 1020.81 1021.66 1021.41 1021.82 1022.19 1022.56 1022.21 1022.46 1022.43 1022.42 1021.83 1021.77 1021.66 1021.51 1021.20 1021.19 1020.68 1020.11 1019.08 1018.75 1019.39 1020.49 1019.97 1019.50
1009.89 1010.85 1011.73 1012.35 1012.74 1013.26 1013.76 1014.14 1014.54 1014.83 1015.30 1015.88 1017.47 1017.70 1017.69 1018.27 1019.07 1018.91 1019.04 1019.22 1018.87 1019.26 1019.86 1021.05 1021.29 1021.26 1021.68 1022.35 1022.95 1023.19 1023.40 1023.54 1023.31 1022.90 1022.21 1022.30 1021.65 1021.38 1021.26 1020.42 1020.04 1019.86 1020.23 1020.25 1020.12 1020.12 1020.00
Wind_Speed
8 4 5 6 7 9 10 11 12 13 14 15 15 16 17 18 20 20 20 20 20 19 18 19 18 15 7 2 1 5 11 9 5 5 4 3 2 2 2 1 1 1 2 3 4 3 2
4 5 5 7 7 8 10 11 12 13 14 15 16 17 18 19 20 21 22 20 20 20 18 17 13 10 2 2 4 7 7 6 5 4 3 4 1 1 2 1 2 1 1 1 2 4 2
9 8 8 8 8 10 10 11 12 13 13 14 15 17 19 20 23 22 21 22 22 21 17 12 7 2 2 0 3 6 6 3 4 2 3 1 1 1 2 1 1 3 2 2 3 4 2
12 11 10 9 8 8 9 10 12 13 14 15 16 16 18 20 22 24 22 22 23 19 10 4 4 2 1 3 2 4 7 4 6 3 1 2 1 1 2 1 6 2 4 2 1 3 3
14 13 11 10 10 9 9 10 11 11 13 15 15 16 18 20 22 24 23 24 16 5 1 2 2 2 1 4 4 5 3 4 6 3 2 2 1 3 3 4 6 5 3 4 3 6 2
14 14 12 12 11 10 9 9 10 11 13 13 12 14 16 19 21 23 25 15 6 4 3 1 1 3 5 5 5 6 5 3 2 6 3 4 5 4 3 4 5 6 4 4 3 3 1
14 14 13 13 12 12 11 10 9 9 10 10 11 13 16 18 20 22 12 5 7 5 9 1 4 3 3 7 3 4 3 5 3 4 2 3 5 4 8 6 1 0 3 3 2 3 2
17 16 15 14 14 14 13 12 10 9 9 9 10 12 15 18 19 20 4 6 1 3 7 3 5 4 4 1 3 5 7 4 4 2 1 6 4 4 3 4 4 4 3 4 2 2 3
19 18 17 16 16 15 14 13 12 10 9 9 8 9 13 16 17 4 5 3 1 3 1 6 3 3 4 2 0 4 5 2 4 2 0 4 2 5 2 2 2 2 4 3 2 2 3
21 21 19 18 17 16 15 13 13 11 9 6 8 10 12 16 3 3 2 5 2 2 6 7 2 3 1 1 2 0 1 1 2 2 2 4 4 3 2 2 5 1 3 3 5 5 3
23 22 22 21 19 18 16 15 14 12 9 7 7 9 10 5 1 2 3 4 0 3 6 3 2 1 1 2 1 2 1 2 2 1 5 6 3 3 0 1 2 3 3 4 3 5 4
24 24 23 22 21 19 18 17 16 14 10 7 8 6 7 2 1 1 5 3 3 8 9 2 1 2 1 1 1 1 1 2 1 2 1 5 3 2 1 3 1 6 4 6 4 4 2
25 25 24 23 22 22 21 19 17 15 12 9 7 5 2 1 1 2 2 3 7 5 2 2 4 3 2 3 2 1 1 2 2 4 3 4 2 3 1 3 4 4 6 4 6 5 7
25 26 26 24 24 24 23 21 20 18 14 10 7 4 3 3 1 2 3 5 3 4 5 1 1 0 4 4 2 2 1 1 2 4 2 3 7 2 0 2 4 3 4 7 7 3 5
12 28 26 26 27 27 26 24 22 19 14 10 5 2 2 3 4 2 3 3 10 7 3 4 1 3 3 3 4 2 4 4 4 7 6 3 4 0 2 2 4 2 3 3 5 1 3
12 14 12 16 26 28 27 27 24 21 16 13 3 2 3 6 5 3 2 7 7 5 4 3 7 5 5 4 3 3 4 2 3 5 2 3 2 2 1 2 1 4 3 4 2 2 5
18 17 17 17 20 29 28 27 26 23 19 15 3 3 3 5 3 3 5 8 6 4 4 7 7 5 3 5 5 4 4 1 1 2 3 4 3 3 1 5 7 3 2 2 3 5 5
18 17 17 19 18 26 24 23 23 22 19 10 4 4 4 4 3 3 5 6 4 4 1 2 4 5 6 6 4 4 6 2 0 2 4 2 4 3 8 2 4 4 6 7 5 5 2
18 18 21 18 18 19 22 25 24 24 20 5 2 1 2 3 7 6 4 4 5 4 4 5 6 4 3 7 4 5 2 1 2 2 4 4 1 2 7 4 1 2 3 4 3 3 5
20 20 21 21 21 23 27 26 26 26 21 3 4 3 3 3 2 4 4 4 4 3 3 2 2 2 3 4 3 1 2 1 2 2 2 1 3 5 7 3 2 3 3 2 3 2 4
21 19 19 23 21 28 30 28 30 25 21 5 4 3 2 4 5 5 1 2 7 5 2 5 3 5 5 3 3 4 1 1 3 5 2 3 5 3 4 4 2 6 7 7 8 7 6
21 19 18 16 26 28 28 30 30 27 15 1 4 4 2 1 2 10 8 3 5 3 7 4 3 3 3 4 2 2 3 2 1 3 2 2 2 1 4 5 6 8 7 9 12 11 9
20 15 14 24 26 27 28 28 27 25 13 2 1 0 2 4 4 4 3 4 4 5 0 2 4 4 1 2 1 3 2 2 2 2 1 1 4 2 4 2 5 9 11 15 6 6 9
16 16 22 23 25 25 24 24 24 24 16 2 2 2 2 1 3 5 4 8 7 5 3 1 3 4 2 3 2 2 1 5 4 7 5 4 4 3 3 2 4 6 3 6 7 6 4
16 24 28 26 22 21 21 20 20 21 18 2 2 2 3 2 2 2 5 4 4 3 3 4 1 1 4 3 2 2 1 3 6 9 9 9 4 2 3 3 7 10 3 3 1 1 5
28 28 26 25 22 19 17 15 13 14 17 3 1 2 3 4 3 2 5 4 3 2 2 3 2 2 3 2 2 4 4 3 2 2 4 8 5 4 3 4 5 3 5 4 3 0 7
31 30 28 25 22 19 16 16 18 19 20 5 2 2 4 3 2 3 3 4 4 2 4 2 3 1 2 2 3 3 3 2 3 3 4 5 4 14 9 6 6 3 8 6 3 2 7
33 31 28 26 23 20 16 14 14 15 15 5 2 3 3 3 1 1 2 4 3 2 4 3 3 1 2 3 3 2 3 2 2 2 3 6 6 5 5 5 10 6 4 3 1 5 6
31 29 27 25 22 19 17 16 15 13 13 7 3 1 0 4 2 2 3 3 3 3 5 1 2 2 3 3 0 1 2 1 2 3 3 3 3 2 4 3 2 3 3 4 5 5 4
Wind_Direction
245 237 286 312 322 326 334 334 335 333 331 334 336 337 336 333 332 331 330 329 326 325 324 326 321 324 338 24 20 319 339 344 354 0 50 22 347 349 253 230 96 232 232 122 122 95 94
224 245 265 296 310 317 325 326 325 326 329 329 329 332 332 330 330 330 328 328 325 321 324 325 325 328 288 42 288 333 342 342 17 25 2 36 64 294 313 71 169 81 70 168 173 131 138
238 253 271 284 298 311 318 320 321 324 326 326 331 333 332 331 330 329 327 325 319 316 317 322 328 351 18 261 324 327 351 303 351 7 1 19 348 21 2 110 305 115 79 324 245 169 134
240 244 259 269 281 298 309 313 316 318 322 326 329 329 329 328 326 325 323 322 317 310 310 326 344 343 83 297 297 353 339 351 357 312 241 271 264 91 69 219 13 70 59 10 295 153 116
248 243 250 257 275 290 298 305 316 318 319 318 320 326 327 326 326 323 321 320 318 329 335 325 15 53 322 321 13 321 1 340 311 323 295 291 1 81 39 83 16 0 217 205 284 201 122
251 244 251 259 269 272 273 285 295 307 315 315 322 324 324 326 326 323 325 324 321 342 340 275 299 38 13 313 303 325 321 20 358 327 23 49 46 71 32 90 212 219 218 228 231 195 227
237 234 242 254 265 268 273 279 284 296 311 322 324 326 324 327 328 325 341 3 12 345 34 116 270 245 279 295 300 344 336 345 22 32 61 16 71 201 219 205 91 277 206 249 173 134 161
229 230 230 237 247 253 260 267 271 281 294 309 320 325 326 327 331 324 34 60 133 221 315 275 262 266 257 308 335 329 359 53 43 28 21 20 241 235 249 234 214 254 311 293 326 134 125
230 231 234 232 237 241 247 256 264 273 289 302 308 317 326 327 323 9 56 27 352 137 293 298 256 263 266 8 322 308 22 330 71 37 3 177 271 328 217 259 180 233 199 193 212 23 46
230 229 229 231 233 236 237 238 247 259 269 291 304 317 330 327 66 334 48 326 332 91 51 280 245 261 182 233 300 343 47 84 42 86 332 241 303 319 317 293 125 229 318 227 137 92 227
229 229 228 225 224 228 228 233 238 247 260 273 289 310 330 3 203 68 298 312 115 41 358 252 217 125 187 234 345 358 16 15 124 106 88 255 9 12 291 245 344 239 78 98 87 104 71
231 229 228 227 221 220 222 224 228 232 234 245 269 294 330 304 49 234 319 330 47 44 256 251 167 241 273 214 250 2 71 57 142 66 295 252 286 208 240 60 17 166 64 45 58 93 26
229 230 229 227 224 219 216 216 219 223 225 229 245 262 267 275 222 320 5 45 26 149 21 232 220 175 246 228 220 186 43 357 134 63 339 324 265 302 127 68 26 74 65 345 352 8 219
226 229 228 226 226 222 216 211 210 215 212 212 215 234 242 218 191 70 65 59 195 231 207 307 131 307 229 178 231 198 105 348 210 104 101 102 336 185 87 168 177 186 141 155 212 203 268
284 243 223 224 224 221 216 209 204 204 193 185 171 196 234 207 166 99 92 139 211 211 178 172 52 194 253 230 186 177 211 204 202 183 158 148 278 288 191 146 141 167 181 179 95 69 32
269 275 269 262 243 222 213 207 198 189 177 172 156 167 229 143 137 94 111 234 231 203 155 153 196 171 203 233 188 182 202 210 182 184 157 206 300 222 179 110 250 145 160 63 11 206 253
255 261 274 269 273 229 213 202 191 180 172 146 122 176 193 131 111 80 200 231 240 202 181 176 197 185 191 201 197 209 210 322 211 199 159 158 136 284 93 197 178 128 202 128 121 149 176
252 258 261 273 281 231 206 189 178 171 152 137 164 191 169 152 160 196 189 203 215 198 203 203 164 170 184 183 211 226 209 197 44 191 179 196 155 234 231 237 177 176 201 162 146 237 217
249 250 260 261 269 245 174 167 168 161 160 134 168 172 179 141 199 211 255 244 208 168 221 190 213 196 163 187 206 202 190 103 18 153 180 182 228 357 339 19 359 202 205 181 119 104 191
252 251 256 259 275 177 162 162 164 170 157 114 125 178 200 224 172 177 180 214 209 199 193 186 185 66 142 180 188 205 206 131 39 82 107 122 176 192 192 190 163 277 315 324 172 151 223
256 252 259 267 201 170 162 166 161 166 163 127 181 228 215 198 202 194 213 246 191 178 227 186 217 215 182 166 186 212 173 35 59 6 49 137 223 200 257 257 245 244 253 252 219 221 218
253 250 258 211 171 171 163 157 154 155 139 93 164 174 160 118 102 196 201 214 210 164 164 221 218 157 195 184 180 151 126 211 174 59 108 348 209 149 269 283 266 263 246 251 250 236 241
246 246 206 175 172 159 155 154 152 156 144 161 164 261 142 158 152 173 192 210 254 159 338 12 180 130 208 218 50 94 40 145 130 144 149 210 146 150 256 340 316 278 222 227 232 208 220
241 185 167 156 151 152 151 150 157 162 163 116 152 120 119 222 153 174 174 201 221 223 167 112 79 129 165 101 77 51 359 261 226 231 201 174 171 160 252 24 243 249 297 222 224 259 265
200 160 147 145 143 146 153 158 163 173 180 151 152 132 144 143 154 135 179 157 117 106 96 133 189 48 139 72 73 308 300 296 234 218 203 204 171 202 201 204 298 307 15 28 19 73 353
137 134 137 131 129 131 137 149 173 190 199 127 133 184 112 113 226 73 161 165 152 131 70 79 51 146 79 99 157 197 224 243 264 171 16 179 208 188 165 212 240 244 313 314 243 267 346
135 131 131 135 132 134 150 172 187 193 177 126 141 246 98 111 203 148 162 174 127 104 113 121 175 65 21 132 210 189 239 229 233 213 173 150 184 221 218 228 275 321 301 310 145 291 329
133 137 136 136 136 133 135 141 150 153 150 108 74 10 119 117 304 48 126 135 112 119 142 157 97 322 78 170 213 218 209 257 314 293 193 174 173 199 205 215 246 331 27 56 281 292 307
130 132 136 139 133 129 128 129 136 138 127 113 109 313 84 88 111 32 44 41 69 136 128 74 153 152 162 111 36 100 199 351 158 262 323 249 201 196 200 222 165 80 118 213 218 237 1